User: anonymous   Login
Location: Brown Observing Site
(43.4354°N, 116.3366°W)
Time: 12:09:07
(UTC-06:00)
Language:

Envisat - Orbit

View from above orbital plane
View from above orbital plane
View from above satellite
View from above satellite

Ground track
Ground track

The orbit data is extracted from the following two-line orbital elements,

1 27386U 02009A   20216.04448056  .00000015  00000-0  18517-4 0  9991
2 27386  98.1361 220.6436 0001421  89.8903 334.4837 14.37987761965313
Epoch (UTC): 03 August 2020 01:04:03
Eccentricity: 0.0001421
inclination: 98.1361°
perigee height: 764 km
apogee height: 766 km
right ascension of ascending node: 220.6436°
argument of perigee: 89.8903°
revolutions per day: 14.37987761
mean anomaly at epoch: 334.4837°
orbit number at epoch: 96531

The dashed part of the orbit path shows where the satellite is in the earth's shadow,  

DLR